NOAA 16 DEB, 41159

Orbit data source: Space-Track

NOAA 16 DEB, 41159 is space debris in SSO originally from a launch on Thu, 21 Sep 2000 UTC launched from the Air Force Western Test Range (AFWTR). Debris objects in space refer to the collection of defunct objects orbiting the Earth. Examples of debris include non-operational satellites, rocket bodies, and fragments generated from explosions, collisions, or faulty payload assembly.

Loading next visibility...
Identifier
41159, 2000-055CS
Orbit
SSO
Country
Flag of USUS
Related business
Manufacturer
Unknown
Mission
Spacecraft
Bus & Motor
Unknown
Mass
Unknown
Launch date (UTC)
2000-09-21 (26 years ago)
Launch vehicle
Unknown
Launch site
Air Force Western Test Range (AFWTR)
Object type
Payload
Rocket body
Debris
Shape & HBR
Unknown shape, 0.1 m
Radar Cross Section
Medium (>0.1 m² and <1 m²)

Expand to show TLE details & history
Last TLE update: 14 hours ago

TLE from 14 hours ago
0 NOAA 16 DEB
1 41159U 00055CS  26237.16903183  .00002226  00000-0  81912-3 0  9997
2 41159  98.6047 313.3181 0017242 340.2297  19.8217 14.33553755556699
Epoch: 2026-08-25T04:03Z
TLE epoch observation values (Epoch: 2026-08-25T04:03:24.350Z)
Latitude
-0.00001°
Longitude
-80.9736°
Altitude
771.202 km
Speed
7.475 km/s
True Right ascension
20h 53m 16s
True Declination
0° 00' 00"
Sunlit
Object was in full shadow at epoch
Visualization orbit readout
Latitude
Unknown
Longitude
Unknown
Altitude
Unknown
Speed
Unknown
Apparent Right ascension
Unknown
Apparent Declination
Unknown
Sunlit
N/A
Visualization observer readout
Local Sidereal Time
09:25:43
Azimuth
Unknown
Elevation
Unknown
Doppler factor
Unknown
Orbital elements
Apogee altitude
789.349 km
Perigee altitude
764.675 km
Semi-major axis
7,155.149 km
Eccentricity
0.00172
Inclination
98.6047°
RAAN
313.3181°
Arg. of periapsis
340.2297°
True anomaly
19.88883°
Mean anomaly
19.8217°
Eccentric anomaly
19.85525°
Mean motion
3.58604 °/min
Orbital period
100.39 mins
BSTAR
0.00081912
Loading maneuver chart data...
Computing Atmospheric mass density...

Documentation

Showing up to 5 results
|